Group_ship,Cruise,JD_GMT,Date_DDMMYYYY,TIME_HH:MM:SS,Lat_dec_degree,Long_dec_degree,xCO2eq_ppm,xCO2a_ppm,Pres_Equi_hPa,Pres_sealevel_hPa,EqTemp_C,SST(TSG)_C,Sal(TSG)_Permil,Water_flow_l/min,Gasflow_IR_ml/min,Temp_IR_C,Pres_IR_hPa,Ship_heading_true_degree,Ship_speed_knot,Wind_dir_rel_degree,Wind_speed_rel_m/s,fCO2W@SST_uatm,Qcflag_water,fCO2a_uatm,Qcflag_air,dfCO2_uatm,Fluoro_ug/l,Wind_speed_true_m/s,Wind_dir_true_degree,Air_temp_C,Oxygen
AOML_Explorer,Ex0536E,248.02,5092005,0:29:19,26.138,-79.343,401.42,-9,1011.9,1008.34,29.47,29.85,35.95,1.86,71.096,32.08,1011.9,62.1,22.8,354,21.617,388.85,2,-9,9,-9,0.17,9.94,53.46,28.06,230.875112
AOML_Explorer,Ex0536E,248.022,5092005,0:31:52,26.145,-79.327,401.26,-9,1011.97,1008.34,29.44,29.86,35.935,1.817,72.028,32.083,1011.966,62.5,22.7,357,22.132,389.28,2,-9,9,-9,0.18,10.46,59.01,28.03,230.924248
AOML_Explorer,Ex0536E,248.024,5092005,0:34:25,26.152,-79.311,400.79,-9,1011.96,1008.2,29.42,29.82,35.943,1.852,71.207,32.086,1011.958,62.5,22.6,349,20.588,388.69,2,-9,9,-9,0.17,9.35,40.24,28.03,230.535937
AOML_Explorer,Ex0536E,248.026,5092005,0:36:58,26.16,-79.296,400.47,-9,1011.97,1008.32,29.41,29.84,35.974,1.834,71.166,32.086,1011.974,61.3,22.5,352,21.617,388.72,2,-9,9,-9,0.18,10.24,45.53,27.96,230.464338
AOML_Explorer,Ex0536E,248.027,5092005,0:39:31,26.168,-79.28,400.21,-9,1011.93,1008.67,29.38,29.81,35.992,1.83,71.299,32.087,1011.93,61.7,22.4,359,22.647,388.55,2,-9,9,-9,0.19,11.12,60.09,27.7,230.548892
AOML_Explorer,Ex0536E,248.029,5092005,0:42:04,26.175,-79.265,400.77,-9,1011.92,1008.65,29.4,29.86,35.978,1.856,71.593,32.088,1011.923,62.8,22.3,3,22.132,389.51,2,-9,9,-9,0.2,10.67,67.3,27.77,230.578099
AOML_Explorer,Ex0536E,248.031,5092005,0:44:37,26.183,-79.249,401.35,-9,1012.15,1008.75,29.38,29.92,36.021,1.828,71.382,32.087,1012.147,62.9,22.2,3,22.132,391.28,2,-9,9,-9,0.19,10.77,67.48,27.73,230.439749
AOML_Explorer,Ex0536E,248.033,5092005,0:47:10,26.189,-79.234,401.26,-9,1012.08,1008.6,29.48,29.98,35.968,1.833,70.743,32.087,1012.083,66.4,21.9,359,21.103,390.44,2,-9,9,-9,0.23,9.83,66.21,27.77,229.895778
AOML_Explorer,Ex0536E,248.035,5092005,0:49:43,26.195,-79.218,400.86,-9,1012.12,1008.16,29.48,30.06,35.977,1.853,70.945,32.084,1012.117,72,21.6,346,21.617,391.21,2,-9,9,-9,0.2,11.11,45.07,27.57,229.336869
AOML_Explorer,Ex0536E,248.036,5092005,0:52:16,26.199,-79.202,399.9,-9,1012.06,1008.51,29.55,30.02,35.992,1.844,71.163,32.081,1012.065,76.4,21.6,348,21.617,388.59,2,-9,9,-9,0.18,10.92,54.02,27.48,229.208363
AOML_Explorer,Ex0536E,248.038,5092005,0:54:49,26.202,-79.185,399.63,-9,1011.91,1008.25,29.59,30,36,1.822,70.939,32.08,1011.91,82.2,21.5,342,21.617,387.48,2,-9,9,-9,0.18,11.55,48,27.61,229.454843
AOML_Explorer,Ex0536E,248.04,5092005,0:57:22,26.203,-79.168,400.03,-9,1011.96,1007.95,29.53,29.92,36.001,1.843,70.715,32.078,1011.958,87.7,21.4,343,22.132,387.57,2,-9,9,-9,0.18,12.06,54.88,27.66,229.632549
AOML_Explorer,Ex0536E,248.042,5092005,0:59:55,26.203,-79.151,401.31,-9,1011.89,1008.11,29.54,29.97,35.978,1.867,71.222,32.079,1011.891,91,21.6,339,22.132,389.3,2,-9,9,-9,0.18,12.54,49.56,27.68,229.673926
AOML_Explorer,Ex0536E,248.067,5092005,1:36:58,26.198,-78.902,399.93,-9,1012.67,1009.04,29.55,30,35.987,1.755,71.107,32.085,1012.673,92,22.5,334,20.588,388.69,2,-9,9,-9,0.16,11.86,34.95,27.3,229.314297
AOML_Explorer,Ex0536E,248.069,5092005,1:39:31,26.198,-78.884,400.81,-9,1012.67,1008.96,29.54,30.04,35.977,1.767,71.267,32.081,1012.669,91.5,22.7,334,20.073,390.06,2,-9,9,-9,0.16,11.3,33.21,27.46,229.247526
AOML_Explorer,Ex0536E,248.071,5092005,1:42:04,26.197,-78.866,401.55,-9,1012.77,1008.95,29.57,30.02,35.989,1.789,71.14,32.08,1012.77,93.7,22.9,330,20.588,390.26,2,-9,9,-9,0.17,12.2,31.91,27.49,229.032534
AOML_Explorer,Ex0536E,248.073,5092005,1:44:37,26.196,-78.848,402.04,-9,1012.86,1008.88,29.58,29.95,35.894,1.799,70.785,32.075,1012.856,97.4,23.1,330,20.588,389.61,2,-9,9,-9,0.16,11.91,37.19,27.53,229.111549
AOML_Explorer,Ex0536E,248.074,5092005,1:47:10,26.193,-78.83,402.43,-9,1012.8,1008.75,29.58,29.99,35.863,1.826,70.496,32.07,1012.795,102.7,22.9,327,21.617,390.62,2,-9,9,-9,0.16,13.42,40.59,27.6,229.13236
AOML_Explorer,Ex0536E,248.076,5092005,1:49:43,26.189,-78.813,401.65,-9,1012.62,1008.98,29.5,29.99,35.982,1.829,70.336,32.067,1012.616,103.5,22.6,324,20.073,390.87,2,-9,9,-9,0.15,12.86,33.12,27.57,229.021626
AOML_Explorer,Ex0536E,248.078,5092005,1:52:16,26.185,-78.796,400.37,-9,1012.54,1009.09,29.55,29.93,35.974,1.814,70.759,32.064,1012.537,103.4,22.5,324,20.588,388.11,2,-9,9,-9,0.15,13.31,34.94,27.63,229.21229
AOML_Explorer,Ex0536E,248.08,5092005,1:54:49,26.182,-78.779,401.52,-9,1012.66,1008.69,29.52,30.05,35.981,1.81,71.138,32.061,1012.662,103.2,22.4,325,19.559,391.34,2,-9,9,-9,0.16,12.24,33.99,27.55,229.510734
AOML_Explorer,Ex0536E,248.082,5092005,1:57:22,26.178,-78.762,401.12,-9,1012.64,1008.71,29.52,30.15,35.997,1.837,70.564,32.06,1012.638,103.6,22.3,320,20.588,392.28,2,-9,9,-9,0.19,14.18,29.88,27.5,228.912793
AOML_Explorer,Ex0536E,248.083,5092005,1:59:55,26.174,-78.745,400.18,-9,1012.82,1009.01,29.62,30.05,35.964,1.817,71.041,32.059,1012.817,107.2,22.2,318,20.588,388.59,2,-9,9,-9,0.2,14.56,31.35,27.41,228.371128
AOML_Explorer,Ex0536E,248.109,5092005,2:36:58,26.107,-78.501,399.7,-9,1012.46,1008.86,29.6,30.16,36.038,1.851,69.283,32.08,1012.455,107.2,22.4,317,22.132,389.73,2,-9,9,-9,0.14,16.38,30.75,27.39,230.2697
AOML_Explorer,Ex0536E,248.111,5092005,2:39:31,26.103,-78.484,401.19,-9,1012.46,1008.69,29.71,30.17,35.982,1.836,69.388,32.079,1012.458,107.2,22.5,320,22.647,389.78,2,-9,9,-9,0.14,16.18,35.46,27.23,230.404284
AOML_Explorer,Ex0536E,248.113,5092005,2:42:04,26.098,-78.467,402.2,-9,1012.56,1008.54,29.68,30.2,36.018,1.842,69.879,32.075,1012.563,107,22.5,315,21.617,391.6,2,-9,9,-9,0.12,16.3,27.29,27.22,230.644583
AOML_Explorer,Ex0536E,248.114,5092005,2:44:37,26.093,-78.45,401.66,-9,1012.63,1008.35,29.7,30.2,36.028,1.833,69.872,32.074,1012.63,108.4,22.6,314,22.647,390.71,2,-9,9,-9,0.12,17.34,29.27,27.16,230.659951
AOML_Explorer,Ex0536E,248.116,5092005,2:47:10,26.088,-78.433,402.03,-9,1012.43,1008.55,29.71,30.12,36.032,1.848,69.64,32.068,1012.431,108.6,22.6,320,21.103,389.81,2,-9,9,-9,0.12,14.92,33.32,27.14,230.715074
AOML_Explorer,Ex0536E,248.118,5092005,2:49:43,26.083,-78.417,402.34,-9,1012.44,1008.64,29.7,30.15,36.051,1.843,69.649,32.065,1012.441,108.9,22.6,320,20.588,390.64,2,-9,9,-9,0.14,14.49,32.39,27.18,231.065923
AOML_Explorer,Ex0536E,248.12,5092005,2:52:16,26.078,-78.4,402.21,-9,1012.31,1008.51,29.63,30.22,36.142,1.857,70.219,32.059,1012.313,108.6,22.6,322,21.617,392.42,2,-9,9,-9,0.12,14.96,36.97,27.26,230.377425
AOML_Explorer,Ex0536E,248.121,5092005,2:54:49,26.073,-78.383,403.21,-9,1012.33,1008.47,29.74,30.21,36.079,1.851,69.114,32.058,1012.331,108.6,22.4,319,22.132,391.82,2,-9,9,-9,0.12,16.05,34.17,27.32,230.492135
AOML_Explorer,Ex0536E,248.125,5092005,2:59:55,26.062,-78.35,404.78,-9,1012.38,1008.7,29.74,30.15,36.061,1.839,69.047,32.053,1012.38,109.3,22.5,314,22.647,392.46,2,-9,9,-9,0.11,17.63,28.96,27.24,230.626341
AOML_Explorer,Ex0536E,248.137,5092005,3:16:34,26.029,-78.24,402.35,-9,1012.38,1008.5,29.71,30.17,36.043,1.872,69.458,32.088,1012.379,109,23.1,324,21.103,390.78,2,-9,9,-9,0.12,14.12,37.18,27,230.957951
AOML_Explorer,Ex0536E,248.138,5092005,3:19:07,26.024,-78.222,402.63,-9,1012.33,1008.72,29.71,30.22,36.055,1.868,69.903,32.091,1012.326,109.4,23.4,329,21.103,391.75,2,-9,9,-9,0.12,12.98,44.71,27.06,230.902324
AOML_Explorer,Ex0536E,248.14,5092005,3:21:40,26.018,-78.205,402.82,-9,1012.28,1008.57,29.73,30.22,36.066,1.887,69.669,32.092,1012.284,109.6,23.5,327,21.103,391.75,2,-9,9,-9,0.12,13.33,41.8,26.99,230.957498
AOML_Explorer,Ex0536E,248.142,5092005,3:24:13,26.012,-78.188,403.61,-9,1012.3,1008.25,29.74,30.24,36.071,1.881,69.766,32.092,1012.3,111.5,23.6,323,22.132,392.48,2,-9,9,-9,0.12,14.9,40.83,27.03,230.860174
AOML_Explorer,Ex0536E,248.144,5092005,3:26:46,26.007,-78.171,404.29,-9,1012.1,1008.5,29.75,30.24,36.079,1.873,69.132,32.09,1012.095,110.4,23.6,321,20.073,392.93,2,-9,9,-9,0.12,13.57,32.88,27.04,230.830649
AOML_Explorer,Ex0536E,248.145,5092005,3:29:19,26.001,-78.153,404.75,-9,1012.16,1008.5,29.76,30.22,36.073,1.884,70.079,32.09,1012.16,109.8,23.6,324,21.103,393.01,2,-9,9,-9,0.12,13.71,39.07,27.02,230.768666
AOML_Explorer,Ex0536E,248.147,5092005,3:31:52,25.995,-78.136,405.22,-9,1012.33,1008.39,29.75,30.18,36.054,1.849,70.022,32.091,1012.328,107.1,23.5,325,20.588,393.07,2,-9,9,-9,0.11,13.15,36.33,27.22,230.983071
AOML_Explorer,Ex0536E,248.149,5092005,3:34:25,25.99,-78.118,405.09,-9,1012.23,1008.26,29.72,30.18,36.053,1.872,70.301,32.091,1012.225,106.8,23.6,324,20.073,393.35,2,-9,9,-9,0.15,12.83,34.02,27.16,230.974508
AOML_Explorer,Ex0536E,248.151,5092005,3:36:58,25.986,-78.101,404.47,-9,1012.16,1008.69,29.72,30.15,36.044,1.878,70.455,32.09,1012.156,103.4,23.4,324,19.559,392.45,2,-9,9,-9,0.11,12.36,29.95,27.18,231.006379
AOML_Explorer,Ex0536E,248.152,5092005,3:39:31,25.983,-78.083,403.91,-9,1012.05,1008.51,29.69,30.13,36.034,1.877,70.325,32.088,1012.052,103,23.3,327,22.647,391.8,2,-9,9,-9,0.12,14.37,41.12,27.33,231.059239
AOML_Explorer,Ex0536E,248.154,5092005,3:42:04,25.979,-78.065,403.36,-9,1012.13,1008.3,29.67,30.14,36.022,1.896,69.964,32.085,1012.127,103.4,23.2,323,20.073,391.89,2,-9,9,-9,0.13,13.05,30.22,27.33,230.996904
AOML_Explorer,Ex0536E,248.156,5092005,3:44:37,25.975,-78.047,402.76,-9,1012.14,1008.57,29.66,30.2,36.029,1.877,69.922,32.085,1012.14,104.5,23.2,325,21.617,392.24,2,-9,9,-9,0.13,13.78,38.68,27.32,230.838529
AOML_Explorer,Ex0536E,248.158,5092005,3:47:10,25.97,-78.03,402.25,-9,1012.13,1008.65,29.7,30.14,35.988,1.897,70.158,32.082,1012.127,111.4,23,317,19.559,390.41,2,-9,9,-9,0.15,13.74,30.87,27.3,230.80354
AOML_Explorer,Ex0536E,248.16,5092005,3:49:43,25.964,-78.014,402.51,-9,1012.1,1008.62,29.71,30.14,35.939,1.876,69.286,32.082,1012.104,114.4,22.9,322,20.588,390.46,2,-9,9,-9,0.15,13.68,42.07,27.26,230.770816
AOML_Explorer,Ex0536E,248.161,5092005,3:52:16,25.957,-77.997,401.58,-9,1012.22,1008.32,29.66,30.16,35.954,1.873,69.68,32.081,1012.217,115.4,22.8,324,19.559,390.61,2,-9,9,-9,0.14,12.43,43.45,27.31,230.611235
AOML_Explorer,Ex0536E,248.163,5092005,3:54:49,25.95,-77.981,400.3,-9,1012.26,1008.51,29.68,30.2,35.995,1.859,70.165,32.079,1012.259,115,22.6,322,20.073,389.72,2,-9,9,-9,0.13,13.4,41.4,27.3,230.655407
AOML_Explorer,Ex0536E,248.165,5092005,3:57:22,25.944,-77.965,399.95,-9,1012.32,1008.49,29.71,30.22,36.011,1.891,69.755,32.076,1012.322,109.8,22.5,327,20.073,389.12,2,-9,9,-9,0.13,12.54,42.46,27.29,230.743502
AOML_Explorer,Ex0536E,248.167,5092005,3:59:55,25.939,-77.948,400.51,-9,1012.23,1008.76,29.73,30.17,36.023,1.892,69.52,32.076,1012.225,104.7,22.5,327,20.588,388.69,2,-9,9,-9,0.14,13,38.47,27.29,230.886459
AOML_Explorer,Ex0536E,248.185,5092005,4:26:46,25.9,-77.766,401.91,-9,1012.04,1008.34,29.59,30.04,35.958,1.87,70.146,32.127,1012.042,106.9,22.7,322,19.559,390.24,2,-9,9,-9,0.17,12.97,31.68,27.04,231.202012
AOML_Explorer,Ex0536E,248.187,5092005,4:29:19,25.896,-77.749,400.85,-9,1012.04,1008.47,29.59,30.09,35.963,1.868,70.289,32.129,1012.043,106.8,22.7,320,19.559,389.83,2,-9,9,-9,0.15,13.33,29.47,27.11,231.206358
AOML_Explorer,Ex0536E,248.189,5092005,4:31:52,25.891,-77.732,400.36,-9,1012.03,1008.46,29.6,30.23,35.991,1.876,69.696,32.129,1012.033,106.5,22.6,319,20.073,391.28,2,-9,9,-9,0.15,13.92,29.59,27.21,231.247542
AOML_Explorer,Ex0536E,248.191,5092005,4:34:25,25.886,-77.715,400.27,-9,1012.02,1008.36,29.65,30.19,36.04,1.863,70.784,32.131,1012.024,106.7,22.7,323,19.559,389.81,2,-9,9,-9,0.14,12.65,33.5,27.09,230.862704
AOML_Explorer,Ex0536E,248.192,5092005,4:36:58,25.882,-77.698,401.47,-9,1011.93,1008.47,29.76,30.09,35.971,1.846,70.863,32.13,1011.926,106.4,22.7,323,20.073,387.89,2,-9,9,-9,0.15,13.07,34.63,27.23,230.956482
AOML_Explorer,Ex0536E,248.194,5092005,4:39:31,25.877,-77.681,402.46,-9,1011.91,1008.53,29.69,30.07,35.955,1.908,71.684,32.128,1011.906,106.2,22.6,323,18.015,389.78,2,-9,9,-9,0.15,11.42,28.97,27.22,231.107486
AOML_Explorer,Ex0536E,248.196,5092005,4:42:04,25.873,-77.664,401.67,-9,1011.78,1008.31,29.64,30.05,36.021,1.893,72.153,32.13,1011.78,106.5,22.6,321,19.044,389.23,2,-9,9,-9,0.14,12.67,29.6,27.17,231.01713
AOML_Explorer,Ex0536E,248.198,5092005,4:44:37,25.868,-77.647,401.12,-9,1011.93,1008.27,29.63,30.03,36.026,1.9,71.307,32.132,1011.931,106.4,22.6,323,18.015,388.73,2,-9,9,-9,0.14,11.42,29.19,27.12,231.398287
AOML_Explorer,Ex0536E,248.199,5092005,4:47:10,25.864,-77.63,401.35,-9,1011.92,1008.13,29.59,30.05,36.075,1.875,71.852,32.131,1011.92,106.5,22.6,328,19.559,389.82,2,-9,9,-9,0.13,11.74,40.15,27.14,231.391777
AOML_Explorer,Ex0536E,248.201,5092005,4:49:43,25.859,-77.613,401.4,-9,1011.84,1008.42,29.62,30.03,36.091,1.922,71.125,32.132,1011.836,106.5,22.7,326,19.044,389.08,2,-9,9,-9,0.15,11.67,35.78,27.01,231.488341
AOML_Explorer,Ex0536E,248.203,5092005,4:52:16,25.854,-77.596,402.26,-9,1011.79,1008.35,29.6,29.99,36.076,1.906,71.657,32.134,1011.795,106.6,22.6,323,18.529,389.66,2,-9,9,-9,0.16,11.86,30.74,27.02,231.498804
AOML_Explorer,Ex0536E,248.205,5092005,4:54:49,25.85,-77.579,402.86,-9,1011.76,1008.3,29.57,29.93,36.048,1.907,72.049,32.133,1011.756,106.6,22.6,325,19.044,389.83,2,-9,9,-9,0.17,11.94,34.29,27.08,231.685918
AOML_Explorer,Ex0536E,248.207,5092005,4:57:22,25.845,-77.562,402.7,-9,1011.8,1008.39,29.53,29.86,35.967,1.911,71.746,32.135,1011.805,106.8,22.7,324,18.015,389.33,2,-9,9,-9,0.15,11.31,29.96,27.11,231.687382
AOML_Explorer,Ex0536E,248.208,5092005,4:59:55,25.841,-77.545,401.46,-9,1011.82,1008.34,29.48,29.9,35.957,1.908,71.583,32.136,1011.82,106.8,22.6,325,18.015,389.48,2,-9,9,-9,0.14,11.13,31.38,27.08,231.71989
AOML_Explorer,Ex0536E,248.223,5092005,5:21:40,25.791,-77.404,403.15,-9,1011.55,1008.19,29.53,29.88,36.1,1.882,70.909,32.187,1011.551,114.2,23.2,323,18.015,389.92,2,-9,9,-9,0.13,11.56,34.29,27.07,231.902974
AOML_Explorer,Ex0536E,248.225,5092005,5:24:13,25.784,-77.387,403.83,-9,1011.74,1008.34,29.5,29.81,36.112,1.895,71.075,32.189,1011.742,114.4,23.4,325,17.5,390.14,2,-9,9,-9,0.14,10.71,34.77,27.11,231.945241
AOML_Explorer,Ex0536E,248.227,5092005,5:26:46,25.777,-77.37,403.86,-9,1011.71,1008.11,29.44,29.77,36.105,1.899,71.021,32.186,1011.715,114.3,23.4,326,16.985,390.41,2,-9,9,-9,0.13,10.12,33.96,27.23,232.134585
AOML_Explorer,Ex0536E,248.229,5092005,5:29:19,25.771,-77.354,403.05,-9,1011.51,1008.02,29.38,29.85,36.114,1.908,70.859,32.188,1011.511,114.2,23.5,323,17.5,391.67,2,-9,9,-9,0.12,11.09,32.09,27.25,232.200913
AOML_Explorer,Ex0536E,248.23,5092005,5:31:52,25.764,-77.337,402.2,-9,1011.42,1008.17,29.37,29.83,36.143,1.88,71.322,32.189,1011.424,114.6,23.2,324,17.5,390.52,2,-9,9,-9,0.12,10.98,34.07,27.38,232.31037
AOML_Explorer,Ex0536E,248.232,5092005,5:34:25,25.757,-77.32,402.86,-9,1011.41,1007.83,29.42,29.82,36.119,1.901,71.132,32.19,1011.41,110.5,23.4,334,18.015,390.31,2,-9,9,-9,0.12,9.36,44.52,27.38,232.532705
AOML_Explorer,Ex0536E,248.234,5092005,5:36:58,25.752,-77.303,403.88,-9,1011.38,1007.87,29.4,29.75,36.142,1.907,71.025,32.191,1011.383,103.4,23.1,332,18.015,390.69,2,-9,9,-9,0.13,9.93,34.42,27.46,232.669147
AOML_Explorer,Ex0536E,248.236,5092005,5:39:31,25.75,-77.285,403.87,-9,1011.45,1007.78,29.38,29.93,36.265,1.903,71.616,32.191,1011.453,97.1,23.5,337,18.015,393.45,2,-9,9,-9,0.13,8.71,36.15,27.41,231.429344
AOML_Explorer,Ex0536E,248.238,5092005,5:42:04,25.748,-77.266,404.24,-9,1011.45,1007.83,29.42,29.94,36.365,1.885,71.17,32.192,1011.451,97.5,23.4,337,18.529,393.5,2,-9,9,-9,0.14,9.26,37.83,27.49,230.668054
AOML_Explorer,Ex0536E,248.239,5092005,5:44:37,25.746,-77.248,408.27,-9,1011.38,1007.95,29.45,29.89,36.342,1.908,71.436,32.193,1011.382,96.9,22.9,336,18.015,396.2,2,-9,9,-9,0.15,9.15,34.57,27.47,230.114153
AOML_Explorer,Ex0536E,248.241,5092005,5:47:10,25.744,-77.23,411.47,-9,1011.44,1007.92,29.47,29.92,36.168,1.898,71.218,32.192,1011.438,96.6,23.5,334,17.5,399.44,2,-9,9,-9,0.13,8.88,28.18,27.47,230.400375
AOML_Explorer,Ex0536E,248.243,5092005,5:49:43,25.742,-77.214,412.2,-9,1011.38,1007.91,29.47,29.96,36.18,1.893,71.594,32.189,1011.377,97.1,22.9,333,17.5,400.62,2,-9,9,-9,0.13,9.35,28.36,27.52,230.661682
AOML_Explorer,Ex0536E,248.245,5092005,5:52:16,25.74,-77.196,410.51,-9,1011.34,1007.95,29.5,30.06,36.184,1.888,70.784,32.19,1011.339,96.5,22.9,335,16.985,399.94,2,-9,9,-9,0.13,8.48,29.26,27.57,230.684783
AOML_Explorer,Ex0536E,248.246,5092005,5:54:49,25.738,-77.178,410.02,-9,1011.32,1007.84,29.55,30.09,36.175,1.907,72.07,32.192,1011.317,95.9,22.8,332,16.985,399.17,2,-9,9,-9,0.14,9.11,24.36,27.62,230.589961
AOML_Explorer,Ex0536E,248.248,5092005,5:57:22,25.737,-77.161,410.37,-9,1011.35,1007.82,29.61,30.1,36.198,1.921,71.036,32.191,1011.352,95.8,22.1,341,17.5,398.75,2,-9,9,-9,0.14,8.03,43.7,27.6,230.399705
AOML_Explorer,Ex0536E,248.25,5092005,5:59:55,25.735,-77.144,410.75,-9,1011.27,1007.9,29.63,30.06,36.211,1.883,71.731,32.19,1011.272,96.6,21,340,16.985,398.14,2,-9,9,-9,0.13,8.1,43.93,27.6,230.431797
AOML_Explorer,Ex0536E,248.272,5092005,6:31:52,25.714,-76.916,418.4,-9,1011.06,1007.52,29.8,30.27,36.521,1.887,72.047,32.243,1011.059,92.5,23.1,344,16.985,405.88,2,-9,9,-9,0.11,6.58,44.15,27.56,230.894477
AOML_Explorer,Ex0536E,248.274,5092005,6:34:25,25.713,-76.898,419.01,-9,1011.04,1007.58,29.79,30.28,36.554,1.888,72.202,32.242,1011.039,92.1,23.1,349,16.985,406.69,2,-9,9,-9,0.1,5.86,56.24,27.56,230.671402
AOML_Explorer,Ex0536E,248.276,5092005,6:36:58,25.713,-76.88,419.36,-9,1011.05,1007.81,29.81,30.15,36.593,1.904,72.091,32.239,1011.051,91.6,23.1,345,15.441,405.05,2,-9,9,-9,0.11,5.03,38.53,27.66,230.519174
AOML_Explorer,Ex0536E,248.277,5092005,6:39:31,25.712,-76.861,420.06,-9,1010.97,1007.7,29.82,30.07,36.286,1.908,72.452,32.24,1010.966,91.8,22.9,343,15.956,404.43,2,-9,9,-9,0.11,5.76,38.38,27.6,230.915812
AOML_Explorer,Ex0536E,248.279,5092005,6:42:04,25.712,-76.844,419.83,-9,1010.9,1007.66,29.66,30.1,36.091,1.882,72.579,32.239,1010.904,91.7,22.8,345,16.47,406.88,2,-9,9,-9,0.13,5.88,47.47,27.65,230.932706
AOML_Explorer,Ex0536E,248.281,5092005,6:44:37,25.711,-76.826,414.99,-9,1010.91,1007.53,29.64,30.16,36.163,1.87,72.147,32.242,1010.911,91.6,22.7,346,15.956,403.38,2,-9,9,-9,0.11,5.33,47.66,27.73,230.75596
AOML_Explorer,Ex0536E,248.283,5092005,6:47:10,25.711,-76.808,411.2,-9,1010.81,1007.45,29.7,30.21,36.146,1.898,72.522,32.24,1010.812,92.7,22.7,343,16.47,399.42,2,-9,9,-9,0.12,6.26,43.46,27.8,231.026808
AOML_Explorer,Ex0536E,248.285,5092005,6:49:43,25.709,-76.79,410.85,-9,1010.76,1007.52,29.69,30.22,36.191,1.896,72.489,32.241,1010.76,95.2,22.7,342,16.985,399.48,2,-9,9,-9,0.12,6.88,45.87,27.8,230.80712
AOML_Explorer,Ex0536E,248.286,5092005,6:52:16,25.708,-76.772,411.18,-9,1010.77,1007.39,29.75,30.12,36.256,1.905,72.217,32.241,1010.768,95.8,22.6,343,15.441,397.51,2,-9,9,-9,0.14,5.51,40.52,27.75,230.956887
AOML_Explorer,Ex0536E,248.288,5092005,6:54:49,25.706,-76.755,412.34,-9,1010.85,1007.38,29.7,30.22,36.238,1.864,71.943,32.239,1010.847,95.8,22.7,341,15.441,400.68,2,-9,9,-9,0.14,5.85,35.52,27.84,230.227411
AOML_Explorer,Ex0536E,248.29,5092005,6:57:22,25.704,-76.737,413.46,-9,1010.83,1007.46,29.72,30.22,36.298,1.876,71.964,32.242,1010.835,96,22.7,349,16.47,401.57,2,-9,9,-9,0.14,5.53,59.8,27.83,228.77622
AOML_Explorer,Ex0536E,248.292,5092005,6:59:55,25.703,-76.719,415.37,-9,1010.77,1007.37,29.78,30.24,36.266,1.907,72.275,32.245,1010.767,96.4,22.7,348,16.985,402.67,2,-9,9,-9,0.12,6.14,59.01,27.9,229.266462
AOML_Explorer,Ex0536E,248.307,5092005,7:21:40,25.684,-76.567,415.64,-9,1010.68,1007.48,29.75,30.01,36.32,1.872,71.755,32.28,1010.676,96.8,23.2,354,15.441,400.12,2,-9,9,-9,0.11,3.99,65.54,27.52,230.571633
AOML_Explorer,Ex0536E,248.308,5092005,7:24:13,25.682,-76.549,415.72,-9,1010.66,1007.26,29.61,30.3,36.229,1.898,71.803,32.278,1010.657,101.4,23.3,349,14.926,406.43,2,-9,9,-9,0.1,4.02,51.96,27.45,230.318456
AOML_Explorer,Ex0536E,248.31,5092005,7:26:46,25.678,-76.531,414.2,-9,1010.65,1007.5,29.68,30.25,36.286,1.891,71.079,32.278,1010.652,102.4,23.3,349,15.441,403.26,2,-9,9,-9,0.1,4.61,54.14,27.52,229.97384
AOML_Explorer,Ex0536E,248.312,5092005,7:29:19,25.675,-76.513,414.26,-9,1010.54,1007.38,29.82,30.13,36.229,1.882,71.653,32.275,1010.545,101.6,23.3,349,15.956,399.38,2,-9,9,-9,0.1,4.97,57.89,27.5,230.099734
AOML_Explorer,Ex0536E,248.314,5092005,7:31:52,25.671,-76.495,415.62,-9,1010.54,1007.34,29.73,30.13,36.264,1.872,71.736,32.273,1010.535,105.6,23.2,351,14.926,402.11,2,-9,9,-9,0.11,3.71,64.3,27.25,230.141043
AOML_Explorer,Ex0536E,248.316,5092005,7:34:25,25.666,-76.478,415.23,-9,1010.61,1007.47,29.68,30.16,36.24,1.889,72.03,32.275,1010.605,110.2,23.1,352,14.926,402.82,2,-9,9,-9,0.1,3.54,75.14,27.03,230.054991
AOML_Explorer,Ex0536E,248.317,5092005,7:36:58,25.66,-76.461,414.7,-9,1010.65,1007.45,29.7,30.17,36.282,1.889,72.137,32.271,1010.654,110.4,23,352,13.897,402.31,2,-9,9,-9,0.1,2.81,63.18,26.83,230.356119
AOML_Explorer,Ex0536E,248.319,5092005,7:39:31,25.654,-76.444,414.38,-9,1010.68,1007.59,29.73,30.18,36.257,1.855,72.078,32.269,1010.678,110.4,22.9,350,13.897,401.54,2,-9,9,-9,0.11,3.19,56.38,26.93,230.399034
AOML_Explorer,Ex0536E,248.321,5092005,7:42:04,25.648,-76.427,414.6,-9,1010.63,1007.36,29.71,30.13,36.302,1.889,72.55,32.267,1010.635,110.6,23,345,15.441,401.35,2,-9,9,-9,0.1,5.18,56.22,27.22,230.666576
AOML_Explorer,Ex0536E,248.323,5092005,7:44:37,25.642,-76.41,414.59,-9,1010.67,1007.45,29.72,30.24,36.37,1.889,71.468,32.265,1010.675,110.8,22.9,347,14.926,402.76,2,-9,9,-9,0.09,4.46,58.27,27.15,230.177071
AOML_Explorer,Ex0536E,248.324,5092005,7:47:10,25.636,-76.394,414.87,-9,1010.73,1007.45,29.73,30.24,36.347,1.893,71.858,32.263,1010.73,111.1,22.8,352,14.412,402.85,2,-9,9,-9,0.1,3.4,68.36,27.04,230.109452
AOML_Explorer,Ex0536E,248.326,5092005,7:49:43,25.631,-76.377,415.9,-9,1010.67,1007.51,29.76,30.2,36.302,1.895,72.036,32.265,1010.674,111,23,351,13.897,402.92,2,-9,9,-9,0.1,3.03,58.68,26.94,230.071375
AOML_Explorer,Ex0536E,248.328,5092005,7:52:16,25.625,-76.36,416.37,-9,1010.56,1007.59,29.76,30.12,36.166,1.922,71.593,32.26,1010.564,111.3,23,352,13.382,402.2,2,-9,9,-9,0.11,2.5,53.03,26.94,230.184683
AOML_Explorer,Ex0536E,248.33,5092005,7:54:49,25.619,-76.343,415.81,-9,1010.61,1007.55,29.74,29.96,36.277,1.896,71.985,32.261,1010.61,110.5,23,349,13.897,399.74,2,-9,9,-9,0.1,3.32,52.72,27.17,230.828127
AOML_Explorer,Ex0536E,248.332,5092005,7:57:22,25.613,-76.326,414.32,-9,1010.74,1007.45,29.56,29.72,36.29,1.864,72.138,32.256,1010.737,111.4,22.9,347,13.382,397.73,2,-9,9,-9,0.1,3.5,41.27,27.31,230.759265
AOML_Explorer,Ex0536E,248.333,5092005,7:59:55,25.607,-76.31,414.33,-9,1010.68,1007.41,29.43,29.87,36.27,1.865,71.365,32.256,1010.681,110.8,22.8,348,13.897,401.76,2,-9,9,-9,0.1,3.68,49.75,27.62,230.618755
AOML_Explorer,Ex0536E,248.352,5092005,8:26:46,25.527,-76.148,418.35,-9,1010.6,1007.58,29.5,29.92,36.594,1.892,71.352,32.297,1010.602,124.7,22.5,335,13.382,405.2,2,-9,9,-9,0.1,6.02,38.19,27.65,230.248741
AOML_Explorer,Ex0536E,248.354,5092005,8:29:19,25.518,-76.133,419.6,-9,1010.55,1007.66,29.51,29.88,36.572,1.89,71.599,32.3,1010.551,124.8,22.5,334,12.353,405.8,2,-9,9,-9,0.09,5.76,28.94,27.64,230.328248
AOML_Explorer,Ex0536E,248.355,5092005,8:31:52,25.509,-76.119,419.63,-9,1010.61,1007.59,29.49,29.79,36.551,1.906,72.295,32.3,1010.614,125.3,22.5,350,13.382,404.82,2,-9,9,-9,0.1,3.08,65.02,27.87,230.346327
AOML_Explorer,Ex0536E,248.357,5092005,8:34:25,25.5,-76.104,418.81,-9,1010.56,1007.52,29.42,29.86,36.534,1.906,72.281,32.298,1010.557,125.1,22.5,346,13.897,406.05,2,-9,9,-9,0.09,4.23,59.93,28.03,230.29
AOML_Explorer,Ex0536E,248.359,5092005,8:36:58,25.491,-76.09,417.8,-9,1010.58,1007.55,29.4,29.88,36.585,1.911,71.712,32.298,1010.578,125.6,22.4,355,13.897,405.72,2,-9,9,-9,0.09,2.81,89.32,28.04,230.369975
AOML_Explorer,Ex0536E,248.361,5092005,8:39:31,25.482,-76.076,417.6,-9,1010.67,1007.68,29.46,29.92,36.605,1.881,72.029,32.298,1010.668,124.7,22.4,354,13.382,405.11,2,-9,9,-9,0.09,2.44,80.39,28.03,230.323218
AOML_Explorer,Ex0536E,248.363,5092005,8:42:04,25.472,-76.061,418.07,-9,1010.6,1007.52,29.5,29.87,36.571,1.888,71.678,32.299,1010.595,125.5,22.5,351,12.353,404.3,2,-9,9,-9,0.09,2.36,49.2,28.03,230.506885